Location: Jackson
(42.2460°N, 84.4010°W)
Time: 11:26:05
(UTC-04:00)

Injun/Solrad 3 - Pass Details

Date: 08 February 2026
Orbit: 871 x 985 km, 66.8° (Epoch: 16 March)

Event Time Altitude Azimuth Distance (km) Brightness Sun altitude
Rises 21:54:44 0° 334° (NNW) 3,555 11.5 -43.1°
Reaches altitude 10° 21:57:25 10° 342° (NNW) 2,628 10.6 -43.6°
Enters shadow 21:57:35 11° 343° (NNW) 2,575 10.5 -43.6°
